Location: Basse Occidentale du Courleau
(48.3833°N, 4.8333°W)
Time: 18:30:57
(UTC+00:00)

Cosmos 1825 Rocket - Pass Details

Date: 05 July 2020
Orbit: 604 x 631 km, 82.5° (Epoch: 06 August)

Event Time Altitude Azimuth Distance (km) Brightness Sun altitude
Exits shadow 21:47:19 - 196° (SSW) 2,823 6.6 -10.8°
Reaches altitude 10° 21:49:22 10° 200° (SSW) 1,997 5.8 -11.0°
Maximum altitude 21:53:46 64° 281° (WNW) 702 4.0 -11.4°
Drops below altitude 10° 21:58:13 10° 4° (N) 2,023 7.0 -11.8°
Sets 22:00:30 0° 8° (N) 2,937 7.9 -12.0°
